Regional Weather Roundup
Issued by NWS

Home | Current Version | Previous Version | Text Only | Print | Product List | Glossary Off
Versions: 1 2 3 4 5 6 7 8 9 10 11 12 13 14 15 16 17 18 19 20 21 22 23 24 25 26 27 28 29 30 31 32 33 34 35 36 37 38 39 40 41 42 43 44 45 46 47 48 49 50

352
ASUS45 KPSR 271910
RWRAZ

ARIZONA HOURLY REGIONAL WEATHER ROUNDUP
NATIONAL WEATHER SERVICE PHOENIX AZ
1200 PM MST MON MAR 27 2017

NOTE: FAIR INDICATES FEW OR NO CLOUDS BELOW 12,000 FEET WITH NO
SIGNIFICANT WEATHER AND/OR OBSTRUCTIONS TO VISIBILITY.

AZZ001>003-036-272000-
NORTHWEST ARIZONA

CITY           SKY/WX    TMP DP  RH WIND       PRES   REMARKS
BULLHEAD CITY  SUNNY     77  32  19 VRB7      29.80F
KINGMAN        SUNNY     65  15  14 SW20G30   29.88S
$$

AZZ004>008-015-016-018-272000-
NORTH CENTRAL ARIZONA

CITY           SKY/WX    TMP DP  RH WIND       PRES   REMARKS
GRAND CANYON   PTSUNNY   54  31  41 SW25G38   29.92F
WILLIAMS       SUNNY     54  32  43 SW21G30   29.95F
PRESCOTT       MOSUNNY   61  33  35 SW13G18   29.94F
FLAGSTAFF      MOSUNNY   50  29  44 SW14G33   29.96F
PAYSON         MOSUNNY   61  30  31 SW13G21   30.00F
PAGE           SUNNY     64  30  27 NE9       29.81F
$$

AZZ009>014-017-272000-
NORTHEAST ARIZONA

CITY           SKY/WX    TMP DP  RH WIND       PRES   REMARKS
WINSLOW        MOSUNNY   68  28  22 SW22G29   29.90F
SAINT JOHNS    CLOUDY    59  26  28 NW14G23   29.93F
WINDOW ROCK    CLOUDY    52  25  35 SW14      29.97F
SHOW LOW       CLOUDY    52  25  35 SW18G26   30.00R
$$

AZZ023-272000-
GREATER PHOENIX AREA

CITY           SKY/WX    TMP DP  RH WIND       PRES   REMARKS
PHOENIX        PTSUNNY   75  34  22 NE6       29.85F
BUCKEYE        MOSUNNY   75  37  25 SW5       29.86F
GLENDALE       PTSUNNY   75  37  25 S8        29.87F
LUKE AFB       MOSUNNY   77  38  24 SW13      29.84F
DEER VALLEY    MOSUNNY   73  36  25 SW9       29.86F
SCOTTSDALE     CLOUDY    74  34  23 VRB5      29.88F
MESA-FALCON    MOSUNNY  N/A N/A N/A S6        29.85F
MESA-GATEWAY   MOSUNNY   73  36  25 SW8       29.88F
CHANDLER       PTSUNNY   77  34  20 W6        29.86F
$$

AZZ027-028-272000-
SOUTHWEST MARICOPA COUNTY AND PINAL COUNTY

CITY           SKY/WX    TMP DP  RH WIND       PRES   REMARKS
CASA GRANDE    NOT AVBL
GILA BEND      MOSUNNY   79  33  18 SW12G20   29.85F
$$

AZZ503-504-507>509-272000-
SOUTHEAST ARIZONA

CITY           SKY/WX    TMP DP  RH WIND       PRES   REMARKS
TUCSON         MOSUNNY   77  33  20 NW9       29.91F
DAVIS-MONTHAN  SUNNY     74  35  23 CALM      29.90F
RYAN FIELD     SUNNY     79  32  18 SW13G21   29.91F
NOGALES        SUNNY     75  34  22 SW15      29.96F
SIERRA VISTA   SUNNY     72  21  14 SW10G20   29.98F
DOUGLAS        SUNNY     72  15  11 CALM      29.95F
SAFFORD        MOSUNNY   73  25  16 NW5       29.88F
$$

AZZ020-021-025-026-031-272000-
SOUTHWEST ARIZONA

CITY           SKY/WX    TMP DP  RH WIND       PRES   REMARKS
YUMA           MOSUNNY   77  43  29 W13G22    29.89F
$$

CAZ031-033-041-043-047-048-061-272000-
SOUTHERN CALIFORNIA

CITY           SKY/WX    TMP DP  RH WIND       PRES   REMARKS
DOWNTOWN L.A.  SUNNY     74  42  31 NW9       30.00F
L.A. AIRPORT   MOSUNNY   65  54  67 W16       30.03S
SAN DIEGO      PTSUNNY   65  51  60 SW10      30.06F
BURBANK        SUNNY     67  39  35 N14G25    30.02R
ONTARIO        PTSUNNY   66  47  50 W8        30.01S
RIVERSIDE      MOSUNNY   65  49  56 W10G20    30.01F
PALM SPRINGS   SUNNY     77  41  27 NW7G16    29.88F
EL CENTRO NAS  MOSUNNY   80  34  19 W17G31    29.89F
IMPERIAL       SUNNY     79  43  27 NW13G18   29.87F
BLYTHE         SUNNY     76  41  28 VRB3      29.86F
NEEDLES        SUNNY     78  35  21 W20G28    29.84F
$$

NVZ020-UTZ003-272000-
SOUTHERN NEVADA-UTAH

CITY           SKY/WX    TMP DP  RH WIND       PRES   REMARKS
LAS VEGAS      MOSUNNY   69  29  22 N20G30    29.83F
SALT LAKE CITY RAIN      43  39  86 NE8       29.88F
$$

NMZ009-TXZ055-272000-
NEW MEXICO-WEST TEXAS

CITY           SKY/WX    TMP DP  RH WIND       PRES   REMARKS
ALBUQUERQUE    MOSUNNY   62  18  18 S7        29.95F
EL PASO        SUNNY     75  16  10 SW12G22   29.94F
$$


........................KEY........................
SKY/WX - SKY CONDITION/WEATHER
TMP    - TEMPERATURE IN FAHRENHEIT
DP     - DEW POINT IN FAHRENHEIT
RH     - RELATIVE HUMIDITY IN PERCENT
WIND   - DIRECTION AND SPEED IN MILES PER HOUR (MPH)
VRB    - VARIABLE WIND DIRECTION
PRES   - MEAN SEA LEVEL PRESSURE IN INCHES OF MERCURY
         F - FALLING PRESSURE   R - RISING PRESSURE
         S - STEADY PRESSURE
VSB    - VISIBILITY IN MILES
HX     - HEAT INDEX IN FAHRENHEIT
WCI    - WIND CHILL INDEX IN FAHRENHEIT
TC     - TEMPERATURE IN CELSIUS WHICH IS ALSO KNOWN AS
         TEMPERATURE IN CENTIGRADE
AFB    - AIR FORCE BASE
         LUKE AFB IS LUKE AIR FORCE BASE
         DAVIS-MONTHAN IS DAVIS-MONTHAN AIR FORCE BASE
NAS    - NAVAL AIR STATION
         EL CENTRO NAS IS EL CENTRO NAVAL AIR STATION
N/A    - NOT AVAILABLE





USA.gov is the U.S. government's official web portal to all federal, state and local government web resources and services.